Theta_e
316 317 317 318 318 318 318 318 317 318 317 317 317 317 315 314 315 318 317 311 312 314 314 315 315 315 316 316 316 316 315 315 314 314 314 314 314 314 314 314 314 312 312 311 309 308 307 305 304 303 302 302 301 301 300 299 298 298 297 296 296 295 295 294 294 294 293 293 293 293 293 292 292 292 291 290 289 289 289 289 289 288 288 288 287 287
315 316 317 318 318 317 318 318 318 317 317 317 316 314 315 316 317 319 317 310 311 313 314 315 316 316 316 315 315 315 315 314 314 314 314 314 315 315 315 314 314 313 313 311 309 308 307 305 304 303 302 301 301 300 299 298 298 298 297 297 296 295 295 294 294 294 294 294 293 293 293 293 293 292 292 291 290 289 289 289 288 288 287 287 287 287
316 317 317 317 318 317 317 317 317 317 317 316 316 316 315 317 319 318 315 310 310 312 314 315 314 315 315 315 315 314 314 314 314 314 315 315 315 315 316 315 315 314 312 310 309 308 307 305 304 302 301 301 301 300 299 298 298 297 297 297 296 295 294 294 294 294 294 294 294 294 294 293 293 292 291 291 291 290 289 288 288 288 287 287 287 286
317 317 317 317 317 317 316 315 315 315 316 316 316 316 316 318 319 317 314 311 310 311 313 314 314 315 315 314 315 315 314 314 315 315 316 317 316 317 317 317 315 313 312 310 309 307 306 305 304 302 301 301 301 300 299 298 298 297 297 297 296 295 294 294 293 293 294 294 293 293 293 292 292 291 290 290 290 289 289 288 288 287 287 286 286 286
317 317 316 316 316 317 317 316 316 315 315 317 318 317 317 318 319 318 317 314 313 313 312 313 314 315 316 316 316 315 315 315 315 315 316 317 316 316 317 318 317 314 313 311 309 308 306 305 304 303 302 301 300 300 299 298 297 297 297 296 296 295 294 294 293 293 293 293 292 291 291 291 290 290 289 289 289 288 288 288 287 287 287 286 286 285
317 316 315 316 317 317 317 317 317 317 316 316 319 319 319 319 319 320 320 317 317 316 314 314 314 314 315 317 318 316 314 313 315 314 314 316 317 317 317 316 317 315 313 312 311 309 306 305 304 303 302 301 300 300 299 298 297 297 297 296 296 295 294 294 293 293 293 292 291 291 290 290 290 290 290 290 290 290 289 288 288 287 287 286 286 285
316 313 313 317 318 318 318 317 317 319 316 315 320 321 320 319 319 320 320 318 317 316 314 314 315 315 315 315 316 316 314 314 315 315 315 317 317 318 320 317 316 315 313 312 311 309 307 305 305 304 302 301 300 300 299 298 297 297 296 296 296 295 294 294 293 292 292 292 291 291 290 291 291 291 291 291 291 291 290 289 288 287 287 286 285 285
317 315 314 316 317 318 318 317 318 319 317 317 319 319 318 318 319 319 319 318 317 317 316 314 315 316 316 315 315 315 314 314 314 315 316 316 315 315 319 319 316 314 313 312 312 310 307 305 305 304 303 302 301 300 299 298 297 297 296 296 295 295 294 293 293 292 291 291 291 291 291 291 292 292 292 292 291 290 289 288 287 286 286 286 285 285
318 318 317 316 316 317 318 318 319 319 319 317 315 315 316 317 317 317 317 316 316 316 317 316 315 316 316 315 316 315 313 313 313 314 315 315 315 314 316 319 317 314 313 312 312 310 307 306 305 304 303 302 301 300 299 298 297 297 296 296 295 295 294 293 292 292 291 291 291 291 291 292 292 292 292 291 289 288 288 287 286 286 286 285 285 284
316 313 314 316 317 318 316 313 315 319 318 314 312 314 314 314 314 315 315 315 315 316 318 318 315 316 316 314 315 316 314 314 314 314 315 315 316 317 317 320 319 314 313 313 312 310 308 307 306 304 303 302 300 300 299 298 297 296 296 296 295 294 294 293 292 291 291 291 290 291 291 291 291 291 290 290 289 288 287 287 286 286 285 285 285 284
311 307 309 314 316 315 311 308 309 313 314 312 313 314 314 314 313 313 313 313 315 318 319 318 316 315 316 315 314 316 314 315 316 314 315 316 317 319 318 320 319 314 313 312 311 310 309 308 306 304 303 302 300 299 299 298 297 296 296 295 295 294 293 293 292 291 291 290 290 290 291 291 291 290 289 289 288 288 287 287 286 286 285 285 285 284
312 309 311 313 312 311 311 310 309 309 310 313 314 314 316 316 313 313 313 312 316 319 317 317 318 317 316 314 314 315 315 315 315 314 314 315 317 319 319 320 318 314 312 312 311 310 308 307 306 304 304 302 300 299 298 298 297 296 296 296 295 294 293 293 292 291 291 290 290 290 290 290 290 290 289 289 288 288 287 287 286 286 285 285 284 284
317 315 314 313 310 310 314 314 311 308 309 313 314 314 317 317 316 317 317 316 318 318 314 315 318 319 316 314 313 314 314 314 314 313 313 314 315 316 321 322 317 313 312 311 310 309 308 307 305 305 304 302 301 299 298 298 297 296 296 296 295 294 293 293 292 291 291 290 289 289 289 289 289 289 288 288 288 287 287 287 286 286 285 285 284 284
319 318 315 314 311 310 314 315 315 313 310 312 314 315 317 318 319 321 319 318 318 316 312 311 314 316 314 312 314 314 313 314 313 313 315 317 315 317 322 321 316 313 312 311 310 309 308 307 306 305 304 302 301 299 298 298 297 296 296 296 295 294 293 292 292 291 290 290 289 289 289 289 288 288 288 287 287 287 286 286 285 285 284 284 284 283
318 317 316 316 315 312 313 315 317 316 312 312 314 315 317 317 317 318 317 317 317 316 314 311 312 313 311 311 315 314 313 314 314 313 317 320 319 321 322 318 314 312 311 310 310 309 308 307 306 305 304 302 301 300 298 298 297 296 296 295 295 294 293 292 292 291 290 290 289 289 288 288 288 287 287 287 286 286 285 285 284 284 283 283 283 282
316 318 318 316 314 312 314 315 316 316 314 313 313 315 317 317 316 316 316 317 315 315 315 313 312 312 311 313 315 314 314 314 313 314 316 317 319 321 320 317 314 312 310 310 310 309 308 307 306 305 304 303 301 300 299 298 297 296 296 295 295 294 293 292 291 291 290 290 289 288 288 287 287 287 286 286 285 285 284 284 283 283 282 282 282 281
315 317 317 312 310 310 309 311 313 314 315 314 313 315 316 316 316 317 318 317 314 315 316 315 314 313 312 314 315 314 313 313 313 314 314 315 316 317 319 319 317 314 311 311 310 309 308 307 306 305 304 303 301 300 299 298 297 296 296 295 295 294 293 292 291 290 290 289 289 288 287 287 286 286 285 285 284 284 283 283 282 282 282 281 281 280
316 316 315 311 311 308 303 306 309 310 313 313 313 315 314 313 314 314 316 316 315 316 316 314 314 313 312 314 314 313 312 312 313 313 314 314 315 316 318 320 320 317 314 311 310 309 308 307 306 305 304 303 301 300 299 297 297 296 296 295 295 294 293 292 291 290 290 289 288 287 287 286 286 285 285 284 284 283 283 282 282 282 281 280 280 280
317 316 316 310 310 308 303 306 310 309 309 310 310 312 312 313 314 314 315 315 315 316 316 315 315 314 313 314 314 312 312 313 313 313 313 313 313 315 317 318 318 317 316 313 311 309 308 307 306 305 304 303 301 300 298 298 297 296 296 295 294 294 293 292 291 290 289 288 288 287 286 286 285 284 284 283 283 282 282 282 282 281 280 280 280 279
316 316 316 308 306 308 306 308 312 311 308 307 308 310 310 311 314 314 314 314 314 315 316 317 318 316 315 316 315 314 312 312 313 313 313 313 313 314 315 316 318 319 319 316 313 311 309 307 306 305 304 302 301 300 298 297 296 296 295 295 294 294 293 291 290 289 289 288 287 286 285 285 284 284 283 283 282 282 282 281 281 280 280 279 279 278
316 317 317 309 304 308 309 309 312 313 312 308 308 310 310 310 311 312 313 314 313 315 315 317 317 315 314 315 316 314 313 313 314 314 314 314 313 313 314 316 318 320 320 317 315 312 310 308 306 304 303 301 300 299 298 297 296 295 295 294 294 293 292 291 290 289 288 287 286 286 285 284 283 283 283 282 282 282 281 281 280 280 279 279 278 278
315 315 316 313 310 311 312 312 313 314 315 312 311 311 311 311 311 312 315 315 314 314 315 316 317 315 313 314 314 314 314 314 314 314 315 316 314 314 315 316 318 319 319 318 316 314 312 309 306 302 301 300 299 298 297 296 296 295 294 294 293 293 292 290 289 288 287 287 286 285 284 283 283 282 282 282 281 281 280 280 279 279 278 278 278 278
316 316 316 316 316 315 314 312 312 313 314 313 313 313 312 312 312 314 316 316 314 314 314 315 316 315 314 314 313 313 313 313 313 313 314 315 315 315 316 317 317 318 318 317 316 314 313 310 305 301 299 299 298 297 296 296 295 295 294 293 293 292 291 290 289 288 287 286 285 284 284 283 282 282 281 281 280 280 280 279 278 278 278 278 277 277
314 315 315 315 315 315 313 308 307 308 310 311 312 313 313 313 313 314 314 314 314 315 314 315 315 316 315 315 314 312 313 312 313 312 312 313 313 313 315 318 318 318 317 316 315 314 310 307 303 300 299 298 297 296 296 295 295 294 293 293 292 292 291 290 289 287 286 285 284 283 283 282 281 281 280 280 280 279 279 278 278 278 278 277 277 276
314 315 315 315 315 316 315 311 308 307 308 310 311 312 314 314 314 315 313 312 314 315 315 315 315 315 314 315 314 313 313 312 311 312 311 312 313 312 314 317 317 317 316 315 313 311 308 303 301 300 299 298 296 295 295 295 294 294 293 292 292 291 290 289 288 287 285 284 283 283 282 281 280 280 279 279 279 278 278 277 277 277 277 277 276 276
313 314 314 314 314 316 316 314 313 311 308 309 310 311 313 314 313 314 314 313 314 315 315 315 315 314 313 314 314 312 313 312 311 311 311 310 312 312 313 316 318 317 316 314 313 311 307 303 301 300 299 298 296 295 295 294 294 293 292 292 291 290 289 288 287 286 285 284 283 282 281 280 280 279 279 279 278 278 277 277 277 277 276 276 275 275
313 313 313 313 313 313 314 314 315 315 311 310 311 311 312 314 314 314 314 314 315 314 314 315 315 314 314 313 313 312 312 312 312 312 311 311 312 312 314 316 317 316 315 314 313 311 308 305 302 300 299 298 296 295 294 294 293 292 292 291 290 289 288 287 286 285 284 283 282 281 280 279 279 279 278 278 278 277 277 277 276 276 276 275 275 274
314 313 312 313 313 312 312 312 313 314 313 313 313 312 312 314 315 315 315 314 314 315 315 315 315 315 314 312 312 313 312 312 312 312 312 311 312 314 314 314 315 314 314 313 312 310 308 307 304 301 298 297 296 294 293 293 292 292 291 290 289 288 287 286 285 284 282 282 281 280 279 279 279 279 278 277 277 277 277 276 276 275 275 275 275 275
312 312 313 313 313 312 312 312 312 312 313 313 315 314 313 313 314 315 315 314 314 315 314 315 315 315 314 312 312 313 312 312 311 311 311 311 311 313 314 313 313 312 311 311 310 309 308 307 305 302 299 297 295 294 293 292 292 291 290 289 288 287 286 285 284 282 282 281 280 279 279 279 278 278 277 277 277 276 276 276 276 275 275 275 275 275
310 312 312 312 313 313 312 312 312 312 312 312 313 314 313 313 314 314 313 313 314 314 313 313 314 314 313 312 312 311 311 311 311 311 311 311 311 311 313 313 311 310 310 310 309 308 308 307 306 304 301 298 296 294 293 292 291 290 289 288 286 285 285 284 283 282 281 280 280 279 279 278 278 277 277 276 276 276 275 275 275 275 275 275 275 275
311 311 312 312 313 313 312 312 312 312 312 311 311 312 312 312 312 313 313 313 313 314 313 313 314 313 312 312 312 311 311 311 312 311 310 311 310 311 312 312 311 310 310 310 310 309 308 306 305 304 301 299 296 294 293 292 290 290 289 287 285 284 284 283 282 281 280 280 279 279 278 277 277 276 276 276 276 275 275 275 275 275 275 275 275 275
310 311 311 312 313 313 313 313 312 311 311 311 311 311 311 311 311 311 313 313 313 313 313 314 314 313 312 312 312 312 311 311 311 310 310 310 310 310 311 311 311 310 310 310 310 310 310 307 305 304 302 300 297 294 292 291 290 289 288 286 284 283 283 282 281 280 280 279 279 278 278 277 276 276 276 275 275 275 275 275 275 275 275 275 274 274
309 311 311 312 313 313 313 313 312 312 313 313 312 311 310 310 310 310 311 312 312 313 313 313 313 312 311 311 311 310 310 310 310 310 310 311 310 311 311 311 310 310 310 310 310 310 310 309 306 304 303 300 297 294 293 291 290 288 287 285 284 283 282 281 280 280 279 279 278 278 277 276 276 276 275 275 275 275 275 275 274 274 274 274 274 273
310 310 310 311 313 313 313 313 313 314 314 314 312 311 311 310 310 311 311 311 311 311 311 312 311 310 310 310 310 310 310 310 310 310 311 311 311 311 311 311 311 311 310 311 311 310 311 310 308 304 302 300 297 295 293 291 290 288 287 285 283 282 281 280 280 280 279 278 277 277 276 276 276 275 274 274 275 275 274 274 274 274 274 274 273 272
310 310 310 311 312 312 313 313 314 315 314 313 312 312 310 310 310 311 311 311 311 311 311 311 311 310 310 310 310 310 311 310 311 311 311 311 311 312 312 311 311 311 310 310 310 310 310 310 308 304 301 299 297 294 292 291 289 287 285 284 282 281 280 280 279 279 278 277 277 276 276 275 275 274 274 274 274 274 274 274 274 274 273 273 272 271
311 311 311 311 312 312 313 313 315 316 313 311 311 311 310 311 311 312 312 312 310 311 311 311 311 311 311 311 311 311 311 311 312 312 311 311 312 312 311 311 311 310 310 310 310 310 311 309 306 303 300 297 295 293 291 289 288 286 284 282 281 280 280 279 279 278 277 276 276 275 275 275 275 274 273 274 273 273 273 273 273 273 272 272 271 271
311 311 312 312 313 313 313 313 314 315 314 313 313 313 312 311 311 312 314 313 311 310 311 311 311 311 311 311 311 311 311 311 312 311 311 311 312 312 311 311 310 310 310 310 310 310 309 307 304 301 298 295 293 292 290 289 287 285 282 281 280 280 279 279 278 277 276 275 275 274 274 275 275 274 273 273 273 273 273 273 272 272 271 271 270 270
310 311 312 313 314 314 314 314 314 315 315 315 314 314 312 312 312 312 314 314 312 311 311 311 311 311 311 311 311 311 312 312 311 311 311 311 312 312 312 311 310 310 310 310 310 309 306 303 302 300 297 294 292 291 290 288 286 284 281 280 279 279 278 278 277 276 275 275 274 274 274 275 275 274 273 273 273 273 273 272 271 271 271 271 270 270
310 310 311 313 314 315 316 316 315 315 314 314 314 313 312 313 313 313 315 315 313 311 311 311 311 311 311 312 311 311 312 312 311 311 311 311 311 311 311 311 310 309 309 308 308 308 305 300 298 297 295 292 291 290 288 286 284 283 281 279 278 278 277 277 276 276 275 274 274 273 274 274 274 274 273 273 273 273 272 271 271 271 271 270 270 270
310 310 311 312 312 313 314 315 315 314 314 314 314 312 311 312 312 315 316 316 313 311 312 311 311 312 311 311 311 312 312 311 311 311 311 311 310 310 311 311 310 309 310 309 306 304 302 298 296 296 294 292 290 289 287 285 283 282 280 278 277 277 276 276 276 275 274 273 273 273 273 273 273 273 273 273 272 272 272 271 271 270 270 269 269 268
311 311 311 311 312 312 313 314 315 314 314 314 313 312 312 312 313 315 315 314 311 312 312 311 311 311 311 311 310 311 311 310 310 310 310 310 309 309 309 309 309 308 306 304 303 300 297 295 295 295 293 292 290 287 285 284 283 281 279 278 277 276 276 276 275 274 273 273 272 272 272 272 272 272 272 272 272 271 271 270 270 270 269 269 268 267
312 311 311 312 312 312 312 313 314 314 314 312 312 312 312 313 313 314 313 311 311 312 311 311 312 311 311 311 311 311 311 310 310 310 309 309 309 308 308 308 308 307 302 298 297 297 295 294 294 293 292 290 288 286 284 283 282 280 278 277 276 276 276 275 275 274 273 272 271 271 271 271 271 271 271 271 271 271 270 270 270 269 268 268 267 267
313 312 312 312 312 312 313 313 314 315 315 313 312 312 312 313 312 312 311 311 312 312 311 312 311 311 311 312 312 312 311 310 310 309 309 309 308 308 308 306 306 307 304 299 296 294 293 293 293 291 289 288 286 285 284 283 282 280 278 277 277 276 275 274 273 272 271 270 270 269 269 270 270 271 271 270 270 270 270 269 269 268 268 267 267 266
314 315 314 312 312 312 313 314 314 313 313 312 312 312 311 311 311 311 311 312 312 312 311 311 311 311 312 311 311 311 310 310 310 309 309 309 308 308 308 306 303 303 301 298 294 291 291 293 292 289 286 285 284 283 283 282 282 280 278 277 276 275 274 273 272 271 270 269 268 268 269 270 270 270 270 270 270 270 269 268 267 267 267 267 267 266
314 314 314 313 313 313 313 312 312 311 310 311 312 312 312 310 310 311 311 311 312 313 313 312 312 312 312 311 311 310 310 309 309 308 308 308 308 308 308 306 302 300 300 299 295 289 289 292 291 288 285 282 281 281 281 282 281 279 277 277 276 274 273 272 270 269 268 267 267 268 268 269 269 269 269 269 269 269 268 267 266 266 266 266 267 267
312 311 310 311 312 311 311 313 313 312 311 310 310 311 311 311 311 312 312 311 311 312 311 310 309 309 308 309 308 308 308 308 308 308 308 308 308 308 308 306 303 300 299 299 296 289 287 289 289 288 285 281 278 279 280 281 281 279 277 276 274 273 272 270 269 268 267 267 267 267 268 267 267 267 268 268 269 268 267 266 266 266 266 266 267 267
309 307 305 306 309 309 310 312 311 309 308 307 308 309 310 310 310 310 309 309 309 308 308 308 307 307 307 307 307 307 307 306 307 307 307 307 308 308 308 308 306 302 300 299 295 290 288 289 289 288 286 281 278 277 278 279 280 279 276 274 273 271 270 269 268 267 266 265 265 265 266 267 266 266 267 267 267 266 265 266 266 266 266 267 267 267
305 303 301 303 305 305 306 307 307 307 307 307 308 310 311 311 310 308 307 307 306 306 307 307 308 308 308 309 309 308 308 308 307 307 307 307 307 308 307 307 307 304 301 298 293 289 288 290 289 288 285 281 277 276 276 277 278 277 275 273 271 271 269 268 268 266 265 264 264 264 265 266 265 265 266 266 265 265 265 265 266 266 267 267 267 267
299 299 299 300 301 301 301 301 304 307 306 306 307 308 308 307 306 304 303 303 303 304 304 305 306 307 308 308 308 308 308 308 308 307 307 306 306 306 306 306 306 305 303 298 292 288 287 288 288 287 284 280 277 275 275 276 276 275 273 272 271 270 269 267 266 265 264 264 264 264 264 265 265 265 265 265 265 265 265 266 267 267 267 267 266 267
296 296 296 297 298 299 299 300 303 305 304 304 304 303 302 301 300 299 298 298 298 298 299 299 300 301 303 303 304 305 306 306 305 306 306 306 305 305 305 306 306 305 304 298 291 286 286 286 286 285 282 279 276 275 275 275 275 273 272 271 270 270 268 266 265 264 264 263 263 263 264 264 264 264 265 265 265 265 265 266 267 267 267 266 267 267
296 296 296 296 297 297 298 298 300 300 299 298 298 297 296 295 295 295 295 295 295 295 296 296 296 297 298 300 302 304 305 305 305 306 306 306 305 305 305 305 305 305 304 299 293 289 287 285 284 283 281 278 275 274 274 274 273 271 270 270 269 269 268 267 265 264 263 263 264 264 264 264 264 264 265 265 265 265 265 265 266 266 267 267 267 267
Wind_Speed
3 5 7 9 12 13 14 16 16 17 14 13 12 10 13 12 13 16 5 6 6 6 10 15 16 19 21 20 19 17 15 15 17 17 17 17 16 13 15 17 15 15 11 11 16 20 23 23 23 23 22 24 25 25 25 26 27 26 27 28 27 25 24 21 21 21 19 17 16 14 14 13 13 13 12 13 14 12 12 13 13 12 11 11 11 11
3 6 12 16 17 13 10 10 12 15 14 12 12 11 12 11 13 13 1 6 5 4 10 14 16 19 20 19 19 17 16 17 19 19 19 19 17 13 15 18 15 11 8 10 14 17 21 22 22 23 22 24 26 26 27 27 27 27 27 28 28 26 25 23 22 22 20 19 17 16 15 14 13 13 12 11 12 13 14 14 13 12 12 12 12 11
6 10 18 19 10 5 4 5 8 13 14 12 9 9 10 10 12 7 4 6 5 4 7 11 13 16 19 20 19 20 19 17 20 21 18 18 17 15 15 14 13 10 9 11 13 14 18 21 22 22 22 24 26 26 27 28 28 28 27 27 27 26 26 24 23 23 21 18 17 14 13 14 12 11 13 12 11 13 14 14 14 13 13 13 12 12
8 10 14 11 3 4 8 6 8 10 10 10 8 7 9 10 10 6 2 3 5 7 8 11 12 13 17 19 19 22 20 16 19 20 16 15 16 16 14 11 10 12 12 12 13 14 16 19 22 22 22 23 25 25 27 28 28 28 27 27 26 26 26 25 25 24 20 18 18 16 15 16 13 11 13 15 15 16 15 14 14 14 14 13 12 12
13 7 1 0 3 6 10 6 7 8 7 9 10 10 11 11 11 9 3 3 7 9 6 8 11 11 13 15 14 12 10 12 15 15 13 14 15 14 13 11 10 11 11 12 13 14 15 17 21 23 23 24 25 27 28 30 29 28 27 27 26 26 27 26 27 26 22 21 22 20 18 17 15 13 13 14 15 16 16 15 14 14 14 13 12 12
15 5 4 2 3 5 8 8 9 9 7 8 11 15 16 14 14 11 5 6 8 7 2 2 9 8 6 10 10 4 5 8 9 10 12 12 12 11 10 11 10 10 10 11 12 13 15 16 19 22 23 24 26 27 27 29 29 27 27 28 27 27 27 27 29 29 26 25 25 23 20 17 15 14 14 14 13 13 14 14 13 13 13 13 13 13
7 2 2 6 6 5 8 11 11 9 8 8 5 7 11 13 13 12 7 4 6 7 1 1 6 9 4 6 8 5 7 9 7 8 12 9 10 9 7 8 9 10 10 10 10 13 14 15 17 20 24 26 25 26 26 26 28 27 27 29 28 27 27 28 30 31 29 26 24 23 22 18 16 14 13 14 12 11 11 10 11 12 13 14 14 14
4 4 3 6 7 7 9 10 10 11 9 5 1 2 2 5 8 8 6 6 6 9 5 5 4 10 10 6 9 9 8 10 10 11 12 10 11 14 9 7 9 10 10 10 10 13 14 15 17 19 23 25 24 25 25 26 29 29 28 30 29 27 27 30 32 33 32 27 24 23 21 17 16 14 12 12 12 12 12 11 12 13 12 13 15 14
3 5 6 8 7 7 7 3 2 10 9 2 3 3 3 1 2 2 3 6 6 8 8 8 10 8 12 6 10 13 12 12 13 13 13 11 12 15 13 6 9 10 10 10 10 13 14 15 18 20 21 22 24 25 26 27 29 29 29 29 29 28 28 31 33 33 33 29 26 25 21 17 15 13 11 11 11 13 14 14 14 13 13 13 14 14
2 1 2 6 8 6 3 4 4 4 5 2 4 4 5 3 1 1 4 4 5 9 9 9 13 7 13 7 8 10 9 11 12 11 12 12 9 11 12 5 7 8 9 9 10 11 12 14 17 18 19 21 23 25 25 26 28 29 29 29 30 29 29 32 34 34 33 30 28 25 22 19 16 15 13 11 11 13 13 14 14 14 13 11 11 12
2 3 1 4 5 2 4 6 5 2 3 5 5 2 2 3 2 2 4 2 4 11 8 13 18 11 10 4 8 8 8 12 11 8 9 10 8 9 9 6 5 7 7 8 9 10 11 13 16 17 19 20 22 23 24 26 28 31 31 30 30 29 29 33 35 35 34 32 30 26 23 22 19 17 16 14 13 13 13 13 13 13 12 10 10 11
6 5 3 2 1 3 5 3 3 3 3 4 3 2 2 4 3 3 3 3 6 10 4 13 20 17 11 3 6 8 10 14 11 6 7 8 7 8 7 5 5 7 7 7 8 9 10 12 14 16 18 20 22 22 24 26 29 31 30 30 30 29 30 33 35 36 34 33 32 28 26 25 22 20 19 17 15 15 14 13 11 11 10 10 11 11
6 7 7 3 1 5 6 3 2 2 3 4 5 4 4 4 3 5 4 5 8 6 2 7 11 13 13 9 7 7 9 13 10 4 8 8 7 8 6 5 5 6 6 7 7 8 9 10 11 14 17 20 21 23 25 26 28 29 29 29 30 31 30 31 35 35 34 33 33 30 28 27 24 22 21 19 17 15 14 12 12 11 11 10 10 10
3 3 7 7 2 7 10 8 5 4 7 8 8 6 6 6 5 6 6 6 8 4 3 4 2 6 9 8 14 16 14 14 11 8 9 8 9 8 5 6 4 5 6 6 7 8 9 10 10 12 16 19 20 22 24 25 27 28 27 29 31 30 29 30 34 34 32 32 31 30 29 28 26 24 22 21 19 16 15 13 13 12 12 11 10 11
6 6 8 9 3 10 16 12 4 2 7 9 7 6 7 6 5 6 7 7 6 5 2 5 2 5 5 2 13 20 19 16 12 11 9 8 10 6 4 5 5 5 6 6 7 8 9 10 11 12 16 19 19 21 24 25 26 27 28 30 32 31 30 32 34 33 32 32 30 30 30 28 26 26 24 22 20 18 17 16 15 14 14 14 13 14
8 9 5 5 1 10 13 6 1 4 4 6 5 6 7 6 7 7 8 6 2 7 6 6 4 7 6 4 9 13 14 15 14 13 10 10 10 6 4 5 6 6 7 7 7 8 9 10 11 13 15 17 18 21 23 25 27 29 29 31 33 32 31 32 35 34 32 31 31 31 31 29 27 26 24 22 21 19 19 19 18 16 17 17 15 15
6 5 4 4 2 5 4 0 1 2 2 4 6 6 3 1 3 6 7 3 1 7 9 5 6 9 8 9 9 13 13 15 15 14 14 13 10 7 7 6 6 7 7 8 8 8 9 10 10 13 15 17 18 21 24 26 29 31 30 30 32 31 30 32 35 34 32 31 32 32 31 30 28 27 25 23 22 20 20 20 19 18 18 18 17 16
5 4 3 4 2 1 2 3 1 3 1 4 4 4 2 4 1 4 6 3 3 9 9 8 13 12 9 8 8 15 16 16 17 16 14 11 8 8 9 7 6 7 8 8 8 8 9 10 11 13 16 18 19 21 24 26 28 30 29 30 32 32 32 33 35 35 34 33 33 33 32 31 29 28 27 24 22 21 21 21 20 19 18 18 16 16
2 4 3 1 1 2 2 1 3 2 1 1 2 2 1 1 3 5 5 4 6 8 9 15 20 15 11 7 6 14 16 17 18 16 13 11 9 8 8 7 7 7 7 8 8 8 9 9 11 13 15 18 19 20 22 23 25 27 27 29 32 31 33 36 36 36 35 34 34 33 32 31 30 28 27 26 24 22 22 22 20 19 18 17 16 15
2 4 3 1 3 2 3 4 5 5 3 0 4 3 1 2 3 5 6 5 7 8 9 16 19 13 9 7 7 14 17 17 16 13 12 12 12 10 8 7 7 6 6 7 8 8 9 9 11 14 16 18 19 19 21 23 26 27 26 30 31 29 32 37 37 37 36 35 35 34 33 31 30 29 28 27 26 24 23 22 20 19 18 16 15 14
2 3 4 0 1 2 4 7 9 10 9 6 5 6 6 3 1 3 5 6 6 7 7 10 15 12 3 2 6 13 16 16 14 11 9 9 11 10 8 7 7 6 6 7 7 8 8 9 10 13 16 17 18 19 20 23 27 27 27 31 32 31 35 38 38 38 38 35 35 35 34 32 31 30 29 28 27 25 24 22 20 19 17 16 14 14
3 4 6 3 3 6 8 9 12 11 10 9 9 10 10 9 5 4 7 6 4 6 9 8 13 15 2 7 4 8 12 12 12 11 7 7 10 9 8 8 8 7 7 8 8 7 7 7 8 11 14 15 17 18 19 22 26 27 28 30 31 33 37 40 39 39 38 36 35 36 34 32 31 30 29 28 27 25 24 22 20 18 17 15 15 14
3 2 6 8 7 8 6 3 3 3 2 3 6 8 10 10 9 8 8 5 4 6 9 10 14 16 4 8 5 5 7 6 8 9 7 7 9 8 8 9 8 8 9 9 8 7 7 6 7 10 13 14 16 17 18 21 25 25 26 29 32 34 38 40 39 38 37 36 35 35 33 32 31 30 29 28 27 25 24 22 20 18 17 16 14 14
2 2 6 8 7 8 3 4 3 1 2 4 6 8 9 10 11 10 6 3 3 6 9 9 11 15 6 8 6 3 4 5 7 7 8 9 8 9 10 9 8 9 9 8 8 6 6 6 7 8 9 11 14 17 18 19 21 23 24 27 30 31 35 38 37 37 37 36 34 34 33 32 31 30 29 28 27 25 23 21 19 18 17 16 14 14
4 4 6 5 6 6 4 3 2 3 5 7 9 11 11 12 13 9 4 2 5 14 18 11 8 13 9 3 3 11 8 8 9 9 9 10 8 10 11 9 9 9 9 9 9 7 7 7 7 7 7 9 12 16 18 18 20 21 23 26 27 27 31 36 37 37 37 35 34 33 32 32 31 30 29 28 26 23 22 20 19 18 16 16 15 14
6 6 7 8 10 8 9 11 6 3 6 7 9 14 15 16 17 11 6 7 11 19 21 14 11 15 14 11 17 20 11 7 10 10 9 9 10 11 11 9 9 9 10 11 11 10 9 7 7 7 7 9 11 15 16 18 19 20 21 24 25 26 30 35 37 38 37 36 35 33 32 31 30 29 29 28 24 22 21 20 18 17 16 15 15 14
4 6 11 14 15 13 15 18 10 2 5 7 11 17 17 17 20 14 9 12 14 13 13 15 20 21 18 20 25 26 20 16 16 12 8 9 10 11 11 10 10 11 12 12 11 9 8 8 8 9 9 8 11 15 17 18 20 21 22 23 24 27 32 36 37 37 35 34 33 31 30 29 29 30 28 26 23 21 21 19 18 18 16 15 15 15
1 7 13 18 21 20 21 23 20 16 12 10 12 15 17 17 18 16 17 19 14 8 10 17 24 23 17 19 25 27 25 21 19 18 17 15 13 9 8 10 12 12 12 11 10 9 10 11 11 11 10 9 12 15 16 17 19 20 21 23 24 28 34 37 36 34 33 32 30 28 28 28 29 29 27 25 24 22 21 19 18 17 17 16 15 14
1 6 11 15 19 19 20 22 23 23 21 16 12 13 15 17 19 23 25 22 14 12 17 19 23 24 18 17 23 25 24 23 22 21 19 19 19 12 6 9 12 14 12 11 11 12 13 14 13 12 11 10 12 14 15 17 18 20 21 22 24 29 35 37 36 34 33 30 27 27 29 29 28 27 25 25 24 22 21 20 19 18 17 16 15 13
2 5 9 14 16 17 19 20 22 24 24 22 19 15 12 13 22 26 22 16 17 23 26 24 26 25 18 18 25 26 25 24 21 19 18 19 23 19 9 9 14 16 13 12 14 15 15 16 15 15 12 9 10 13 15 17 19 20 21 22 24 29 35 37 35 32 30 27 25 28 30 28 28 27 26 26 24 22 20 19 19 18 17 15 14 12
4 7 9 10 11 14 18 21 23 24 24 24 23 20 19 22 26 24 16 13 19 24 25 25 26 21 15 19 24 23 21 19 17 20 22 21 25 25 16 13 17 19 17 15 16 15 14 16 16 15 13 11 11 13 15 16 18 20 21 22 25 30 35 36 33 29 27 25 26 30 30 28 28 27 26 25 23 22 21 20 19 18 16 14 13 12
4 7 7 7 10 12 16 20 22 23 24 24 22 22 26 28 25 20 16 16 18 19 20 21 19 14 14 19 19 19 22 21 20 23 24 23 25 24 19 17 20 20 18 18 17 14 13 14 15 15 15 13 13 14 16 18 19 20 22 24 25 30 34 33 30 27 26 26 29 31 30 29 29 27 26 24 23 23 22 20 18 17 15 14 12 10
5 6 6 7 10 11 15 20 20 17 16 16 18 23 27 26 22 22 23 23 21 17 15 14 12 13 17 19 18 21 25 23 19 20 21 22 22 18 14 16 19 17 16 16 16 14 12 11 13 15 15 13 15 19 23 26 25 23 24 27 29 33 34 31 30 30 28 29 32 32 31 31 30 29 27 26 25 23 21 19 18 16 14 13 11 9
8 9 8 7 7 10 14 16 13 10 11 13 15 19 21 23 25 26 25 25 23 20 16 13 13 16 18 18 20 24 24 21 19 20 19 19 16 13 14 18 19 17 16 15 14 13 12 10 10 12 14 16 20 23 27 30 28 26 27 30 32 35 35 33 33 34 32 32 33 33 33 32 32 30 28 26 25 23 21 19 18 15 13 12 10 9
10 10 8 7 7 8 9 9 10 11 12 13 12 12 16 23 27 26 24 25 26 26 24 21 19 21 23 23 25 25 21 20 21 20 20 20 16 12 15 20 21 18 16 16 14 12 12 10 8 9 11 16 20 23 25 27 28 27 29 32 34 35 35 35 34 34 34 34 34 34 34 33 32 30 27 26 25 23 21 19 17 15 13 11 9 9
13 10 7 7 7 6 5 8 10 7 3 3 6 11 17 19 19 19 21 26 29 28 26 24 24 27 29 28 27 24 20 20 17 15 18 20 15 11 15 19 21 19 16 14 13 11 9 8 9 10 12 16 20 23 26 28 30 30 30 33 35 35 36 36 35 34 35 35 35 35 35 34 33 30 28 27 25 23 21 19 17 15 13 10 9 8
16 11 7 8 9 7 7 11 11 7 3 4 7 13 15 13 15 17 19 21 22 21 21 22 25 28 30 30 30 24 17 14 11 12 18 20 16 14 17 19 19 19 16 13 12 10 8 9 11 13 15 19 23 26 29 30 33 34 33 33 35 36 36 36 36 36 36 36 36 37 36 36 34 32 29 28 26 24 22 19 17 15 12 10 9 8
19 16 12 11 9 9 10 9 8 9 9 9 14 18 16 16 20 22 19 14 11 13 18 21 24 28 28 28 27 20 10 6 8 12 17 18 15 13 14 16 16 16 14 13 10 7 7 10 13 16 20 22 24 29 31 32 34 34 32 32 34 35 36 36 36 38 38 38 38 38 37 36 35 33 31 29 28 25 22 20 17 14 12 11 9 8
21 16 13 12 8 8 10 8 8 10 8 9 16 19 20 22 21 18 15 9 8 14 21 23 25 26 24 22 20 14 7 6 9 13 14 15 14 10 10 12 12 12 11 11 10 8 9 11 13 16 19 20 22 28 31 33 34 32 30 33 37 37 37 39 40 41 41 39 38 38 37 36 35 34 32 30 28 25 23 20 16 14 12 11 9 7
18 11 11 13 10 9 13 9 6 7 5 8 14 18 21 23 18 15 12 6 9 18 24 25 25 22 19 18 15 11 10 10 12 13 14 13 12 8 7 10 11 11 10 9 9 8 10 13 13 13 15 18 23 29 31 33 33 30 31 36 39 39 42 44 42 41 40 38 37 37 36 35 34 33 32 30 27 24 21 19 16 14 12 11 9 6
11 9 10 12 10 12 15 11 6 7 7 9 15 18 16 12 10 13 12 6 11 20 21 21 22 18 15 17 13 10 12 14 14 15 14 12 11 10 9 9 8 7 5 4 5 6 9 12 14 14 15 20 25 29 33 35 31 29 34 38 38 42 45 43 40 39 38 38 37 36 35 34 33 32 30 28 26 23 20 17 15 14 12 11 9 7
7 7 8 11 10 10 12 10 9 8 7 11 18 18 10 6 7 11 12 10 15 19 16 17 19 17 16 17 13 12 15 15 14 13 13 13 13 13 12 9 6 5 4 2 4 7 8 8 11 12 13 18 26 31 36 35 29 32 38 35 34 42 44 41 41 41 39 38 37 36 35 33 32 30 28 26 24 22 20 17 15 14 12 11 9 7
7 6 6 8 8 8 9 9 9 7 7 15 20 14 9 9 11 11 12 15 16 16 15 15 16 16 15 14 13 14 16 15 13 12 13 14 13 13 13 10 8 8 6 3 3 6 7 5 6 9 10 17 26 32 37 34 27 31 35 30 32 41 42 41 43 41 38 37 36 34 33 32 30 29 27 26 24 22 19 17 15 14 13 11 9 6
10 10 7 6 8 8 8 9 9 9 10 16 17 11 11 15 17 16 16 16 15 14 13 12 12 14 14 12 13 15 14 14 14 13 13 13 12 12 13 9 8 8 7 5 4 6 8 7 7 8 11 18 26 33 39 36 28 26 28 28 34 41 41 41 43 40 37 37 35 33 32 31 30 29 27 25 24 21 19 17 16 15 13 11 9 7
7 9 8 6 7 7 6 6 6 6 7 10 12 11 12 15 18 19 18 16 12 10 8 7 9 11 10 10 12 12 11 11 12 12 11 11 11 11 11 8 8 9 9 8 8 11 13 12 10 10 11 18 27 34 38 38 31 26 26 31 39 43 43 43 42 39 37 36 34 34 33 31 30 29 26 25 23 21 20 20 18 15 13 11 9 8
6 7 6 4 5 7 9 7 5 6 7 6 6 9 11 11 10 9 10 11 11 11 10 9 10 12 12 11 10 9 10 10 10 10 10 10 10 10 8 7 8 8 8 8 8 12 14 12 11 11 11 16 26 34 37 38 34 30 32 37 42 44 45 44 42 39 38 37 35 35 34 32 30 27 25 24 22 20 19 20 18 15 13 11 10 8
6 10 10 7 8 8 6 7 10 11 11 11 10 9 10 11 10 10 10 10 12 13 13 13 14 14 13 12 11 11 13 14 14 14 13 11 12 11 9 8 9 9 9 10 12 13 13 10 11 14 12 14 23 33 37 36 34 33 37 42 44 46 47 46 44 42 39 38 36 34 34 33 31 28 26 24 22 20 18 18 18 15 13 11 10 8
8 12 12 10 10 9 9 11 13 13 13 10 7 6 7 8 9 11 11 11 12 13 13 13 14 14 13 13 13 12 13 14 14 14 15 14 13 13 11 10 10 9 10 12 13 14 12 11 14 16 13 13 21 32 37 35 33 34 40 44 46 48 49 47 45 43 40 38 37 35 34 33 30 28 27 25 22 21 19 18 17 14 12 11 10 9
10 11 10 11 13 13 14 14 12 10 11 9 7 7 8 8 10 13 14 14 15 15 14 14 13 12 11 13 14 14 14 15 14 14 15 14 14 13 13 12 12 11 10 11 12 14 14 13 15 15 14 16 25 33 35 34 34 37 43 46 49 52 51 46 43 42 39 38 37 35 33 31 30 28 27 26 23 20 18 18 16 14 11 11 9 7
10 11 10 11 12 12 12 12 11 10 11 11 12 13 13 13 14 15 16 17 18 18 19 19 18 17 16 16 16 16 16 17 17 17 16 14 14 15 15 14 13 12 10 10 11 14 15 16 16 16 15 19 28 34 34 34 35 39 44 49 52 55 53 48 44 41 38 37 38 36 33 31 29 27 27 28 26 21 18 17 15 13 11 9 7 5
9 11 11 11 11 12 14 13 11 10 11 11 14 18 18 17 18 18 17 18 19 19 18 19 20 21 19 17 16 16 16 16 17 18 17 16 16 16 16 15 14 13 11 9 10 12 14 15 15 14 15 21 30 35 34 33 37 41 46 51 54 56 55 52 47 41 38 38 38 37 35 34 31 28 29 30 27 24 22 18 14 12 9 7 6 5
Wind_Direction
191 222 227 236 238 234 232 228 233 248 263 277 278 277 274 273 272 272 266 144 187 223 239 246 251 257 263 265 266 269 267 264 261 256 253 253 253 247 242 240 229 225 218 189 189 189 188 191 188 187 188 185 186 188 186 183 181 182 185 189 189 189 188 183 185 190 188 186 187 188 192 197 202 201 204 217 223 223 226 233 242 248 253 259 269 279
184 222 235 239 247 252 256 255 250 255 263 267 266 271 272 265 267 272 215 140 181 217 253 260 262 262 264 266 268 268 264 262 263 261 258 258 259 251 244 241 232 225 202 175 184 186 183 185 183 183 184 184 185 187 188 186 184 184 186 188 189 188 186 186 189 191 190 191 190 190 191 190 190 193 197 208 219 225 227 233 243 248 252 260 269 276
209 229 243 245 253 269 280 280 264 261 261 263 259 259 264 263 268 270 117 134 180 204 264 270 271 270 268 267 265 261 256 253 256 259 260 265 266 258 248 244 233 214 190 180 186 185 182 180 178 180 184 186 187 187 189 188 185 184 185 186 186 186 187 189 192 193 192 190 189 187 185 184 180 187 196 197 202 217 226 235 244 248 251 258 266 272
219 234 248 249 226 246 258 246 247 259 254 245 243 247 253 255 266 266 151 152 197 215 271 286 279 271 267 262 255 251 249 246 251 257 260 263 262 259 255 250 234 212 192 188 193 188 183 179 178 182 184 186 188 188 190 189 186 186 186 186 184 186 189 190 193 195 190 186 186 184 183 183 180 185 201 205 210 221 229 236 244 248 250 254 259 265
237 236 211 138 156 236 254 232 219 243 248 232 225 235 248 251 258 265 304 339 252 234 250 289 283 265 253 246 239 240 240 238 246 254 261 260 254 251 251 246 232 216 197 192 198 191 185 183 183 186 185 185 188 191 191 189 188 188 187 186 184 187 190 192 195 194 187 187 190 189 189 191 191 195 204 211 217 225 231 235 239 245 249 252 256 261
247 228 97 227 208 209 240 240 224 226 251 243 222 228 244 258 265 269 321 353 296 265 181 298 295 277 230 224 224 172 160 217 228 239 250 259 260 243 230 231 221 209 203 201 201 192 187 186 185 187 187 188 192 194 192 189 189 187 186 186 185 188 191 193 197 196 191 193 194 192 190 191 193 199 205 209 210 212 222 229 232 239 247 252 257 262
246 149 101 239 232 217 235 251 238 220 245 254 232 236 246 259 267 271 293 307 283 283 220 91 310 293 256 216 222 169 165 204 205 225 235 244 264 252 213 201 202 199 199 204 204 193 186 184 185 188 190 192 193 193 190 187 189 187 185 185 185 188 190 193 197 198 196 195 194 195 196 194 194 198 204 206 202 195 199 209 219 232 245 253 258 262
190 172 176 210 223 231 233 252 237 210 230 255 21 5 258 254 262 262 273 257 263 293 275 176 208 278 276 232 209 201 205 223 230 243 245 234 243 253 242 180 182 195 189 192 200 193 188 185 187 190 191 192 192 189 186 185 188 188 186 186 186 188 191 195 199 198 198 196 193 195 196 196 198 198 194 188 187 191 197 206 221 233 243 253 258 261
148 187 194 185 202 228 224 274 233 199 221 269 57 40 62 59 271 230 245 257 273 295 275 189 171 247 277 249 195 208 219 227 232 240 250 246 230 244 257 209 172 189 185 186 194 191 190 189 190 191 188 189 189 186 186 186 186 186 186 185 186 189 191 196 199 198 199 198 196 197 194 193 195 193 185 178 187 203 213 221 230 235 240 248 256 262
77 177 211 188 204 226 190 47 21 218 220 140 109 86 78 88 92 145 241 273 282 274 260 187 165 219 278 263 182 198 212 214 224 228 237 247 230 230 254 238 164 176 185 188 193 190 189 189 189 188 185 185 186 186 186 185 184 185 186 185 188 188 190 197 199 198 200 199 198 198 194 192 191 188 189 187 194 207 217 225 232 237 239 239 242 251
128 92 0 220 219 205 101 74 29 24 117 139 147 121 119 190 182 199 237 261 271 266 245 179 175 206 270 263 157 176 202 200 200 205 224 239 225 215 240 239 171 168 178 185 191 188 183 183 183 183 184 184 183 183 183 183 185 187 188 188 189 189 191 198 200 199 200 199 199 198 196 197 193 188 191 190 195 205 211 218 226 234 235 231 231 236
186 172 200 208 169 124 116 104 63 70 141 168 176 195 231 225 200 214 210 167 241 264 220 169 182 201 232 231 154 178 198 196 183 186 242 248 229 216 217 207 171 166 174 178 184 182 175 177 179 181 185 183 180 180 181 183 186 188 189 188 189 189 192 197 199 199 199 199 200 200 200 201 197 194 196 194 195 203 208 209 214 223 227 231 238 243
203 203 187 134 103 181 174 161 113 125 183 202 194 193 238 247 228 232 216 192 232 254 115 156 186 211 234 243 223 208 196 198 194 211 256 257 247 234 196 157 151 160 172 175 178 179 175 177 179 182 185 183 182 183 183 185 185 187 189 189 190 191 189 193 197 198 197 198 201 200 201 202 200 200 202 201 200 203 206 206 209 216 221 228 235 238
220 220 167 160 209 191 188 199 207 191 184 193 191 182 206 233 249 252 245 240 244 242 128 137 187 242 258 246 222 225 217 204 207 224 236 239 241 233 170 136 146 160 172 177 178 182 182 183 182 182 184 185 186 185 185 186 186 187 189 190 192 191 187 190 195 195 194 197 199 200 201 202 202 202 203 205 205 203 203 205 210 215 219 224 229 235
248 271 176 170 173 169 188 211 223 133 172 192 194 196 216 230 243 250 259 262 272 298 230 163 183 248 275 220 196 214 222 210 212 223 216 224 231 215 134 141 163 171 181 182 184 190 189 187 183 181 185 189 189 186 186 187 186 186 190 192 193 191 188 190 194 192 191 194 195 198 200 201 202 204 205 207 207 207 208 211 213 218 225 230 234 242
242 262 163 131 92 166 183 210 129 107 175 190 179 209 233 235 228 246 282 286 317 315 271 186 215 246 261 259 187 195 214 206 210 219 213 226 224 190 166 190 181 177 185 184 189 195 192 187 185 184 187 190 188 186 187 187 187 189 191 192 193 191 188 190 194 191 189 192 194 197 200 200 202 203 203 205 208 208 211 215 217 222 230 236 239 245
235 263 125 98 317 173 168 324 164 208 210 164 175 206 224 0 234 243 277 300 117 281 269 217 246 258 266 261 190 172 200 202 204 210 211 225 220 196 212 209 181 180 184 186 190 190 187 186 190 190 189 191 188 186 189 190 190 192 191 190 191 190 187 188 193 191 188 190 194 196 197 199 200 202 202 204 206 207 212 217 221 225 231 236 240 245
239 269 172 165 231 151 17 352 298 303 333 143 190 206 100 50 331 242 262 282 247 266 272 262 267 270 274 270 176 173 198 199 200 207 209 219 213 209 225 216 193 186 179 185 189 188 190 189 194 195 193 196 193 189 191 191 192 194 192 189 188 187 187 188 191 192 190 191 193 194 195 197 199 201 202 203 204 208 213 218 222 228 232 236 240 245
236 259 231 149 21 81 72 266 223 238 180 137 282 284 88 221 204 197 220 248 249 257 271 275 278 273 260 259 179 181 195 194 198 205 210 215 210 212 224 222 208 184 172 188 191 190 195 194 197 197 195 198 197 193 191 190 192 193 192 192 189 188 190 191 191 192 192 192 192 192 193 196 199 200 202 203 205 209 213 218 222 227 230 233 239 244
172 233 238 46 359 87 137 215 203 181 159 300 290 266 236 257 223 199 203 220 238 247 270 282 284 276 251 238 191 179 187 196 202 203 206 211 212 214 217 221 214 187 179 191 192 194 197 198 201 198 198 199 197 194 190 190 193 192 191 193 191 189 191 192 192 191 191 191 192 191 191 195 197 199 202 204 207 210 214 219 221 224 228 231 236 243
124 229 238 160 318 229 202 198 192 190 179 183 226 219 200 204 277 276 236 226 234 242 254 270 276 274 264 140 181 179 183 197 200 196 199 202 210 216 210 212 215 202 195 193 194 198 193 194 197 195 198 198 195 196 193 193 194 192 192 194 190 188 190 191 191 191 190 190 191 190 190 192 195 198 201 204 207 210 214 217 218 221 226 228 234 241
168 213 227 211 204 224 221 200 195 198 184 182 195 199 198 189 184 235 239 224 214 235 240 243 263 270 263 99 151 179 177 196 197 185 186 197 205 210 205 210 215 211 209 204 201 200 188 185 183 183 189 189 189 193 190 191 194 191 191 192 189 190 192 191 191 191 190 189 190 190 190 191 194 197 200 202 205 208 211 214 216 219 222 227 234 238
175 168 223 231 230 236 231 179 184 208 178 225 221 205 204 192 187 211 223 214 192 222 242 241 253 266 260 106 118 157 156 199 211 180 181 209 207 204 207 208 210 214 217 212 200 194 187 178 172 175 180 183 188 191 187 190 193 189 187 188 190 193 194 192 191 190 189 188 188 188 188 190 193 195 198 200 203 206 209 210 213 215 219 226 231 231
123 142 223 239 255 261 246 99 79 86 149 247 245 221 216 209 210 220 227 239 213 209 229 235 241 261 267 110 119 224 201 218 229 198 207 229 216 214 218 206 205 214 215 214 205 191 178 167 168 175 180 186 191 192 190 190 190 188 186 186 188 191 192 191 189 188 188 187 186 186 187 189 192 194 196 198 200 204 205 207 210 213 220 226 227 228
172 194 211 232 251 261 252 201 187 174 189 219 227 217 219 220 222 235 253 269 246 232 234 239 243 253 258 127 207 259 234 192 212 214 219 230 217 215 218 205 206 214 210 214 212 195 180 174 178 185 188 190 188 189 192 189 188 187 186 186 185 183 187 189 188 187 187 185 184 184 186 188 190 192 194 196 199 200 201 203 208 213 220 224 226 229
186 194 191 214 231 228 232 236 227 158 181 212 224 217 216 215 215 223 232 225 237 239 235 240 251 254 263 276 272 268 253 214 224 220 205 215 220 222 222 209 204 209 211 214 212 202 193 188 192 194 193 191 186 187 190 188 188 187 185 185 182 178 183 187 187 186 185 184 183 183 184 186 188 190 193 195 195 196 198 202 207 214 218 223 227 230
188 211 201 215 230 228 235 245 249 208 177 187 209 216 213 210 210 214 225 227 235 244 237 236 247 255 262 268 271 272 270 266 265 260 242 231 227 223 222 216 209 211 215 214 212 208 199 197 207 205 197 189 186 188 189 187 187 185 184 183 178 179 184 187 186 185 183 182 181 180 181 182 186 190 192 192 191 194 198 201 207 214 218 221 226 232
223 238 223 228 237 238 246 255 258 259 242 209 198 208 211 211 210 212 224 230 232 248 247 238 244 253 255 254 264 272 272 272 273 273 272 270 260 236 210 213 220 222 223 219 214 211 208 213 217 210 199 188 186 189 187 185 185 184 183 180 176 181 186 186 184 182 180 179 177 177 178 181 186 188 188 189 191 194 198 202 207 214 218 222 228 236
228 253 246 250 254 253 257 262 263 266 264 250 229 215 210 208 209 217 227 230 227 239 248 246 248 254 255 252 258 263 267 271 273 273 275 276 277 271 217 203 225 231 227 225 222 219 220 224 221 212 201 188 184 184 180 180 182 181 180 177 175 181 186 185 183 180 178 177 174 175 178 180 182 183 184 188 191 193 198 204 209 213 218 225 231 238
219 254 251 258 266 265 264 265 264 265 268 267 261 252 241 229 225 228 231 229 227 238 247 251 254 257 260 259 258 259 266 272 276 279 279 277 280 280 251 216 239 248 241 234 233 231 228 227 226 219 205 183 178 182 178 179 180 178 177 175 175 181 185 184 181 178 175 173 172 176 177 177 178 180 184 187 189 193 197 203 209 214 219 226 232 240
222 232 239 254 267 261 258 261 262 262 265 267 269 273 271 260 250 246 241 229 232 241 247 251 256 260 260 258 259 264 269 270 272 276 279 277 277 276 267 256 262 267 266 262 255 247 235 228 228 225 211 194 186 181 176 175 176 176 177 175 175 181 184 182 178 174 170 168 171 175 175 175 178 180 183 186 189 194 198 202 209 214 220 227 232 241
214 233 239 247 255 251 248 251 253 255 259 261 263 263 257 254 256 256 248 239 239 247 253 253 254 255 251 255 262 267 266 265 266 269 272 272 272 275 277 273 269 269 273 275 272 263 243 228 226 224 217 206 191 179 176 173 171 174 178 176 175 179 181 179 174 170 167 168 172 173 173 175 178 179 182 186 190 195 199 203 209 214 221 227 233 242
194 220 228 228 244 249 243 246 251 254 257 252 243 242 244 248 254 255 253 251 247 244 249 248 242 242 251 259 266 265 262 260 260 261 263 267 272 277 277 269 266 270 274 274 272 267 254 235 223 221 219 209 195 190 189 184 179 180 180 178 178 179 178 175 174 172 170 171 173 173 173 176 178 179 183 187 192 196 199 203 208 213 219 225 233 242
195 211 223 219 236 246 240 246 255 248 242 238 231 234 243 250 251 250 251 252 249 245 245 246 250 253 255 256 256 255 255 255 257 259 262 267 273 278 274 269 270 275 275 272 267 263 260 246 224 216 215 209 201 195 193 190 187 185 182 179 179 178 177 176 176 175 173 171 173 174 175 177 178 179 183 187 192 195 197 201 205 210 217 222 230 240
206 215 225 218 232 246 239 243 248 236 234 239 236 232 238 243 246 251 257 259 258 257 254 252 254 254 254 253 253 252 253 257 262 267 271 272 272 271 272 273 275 276 274 271 266 261 262 252 222 205 207 204 197 188 184 185 185 181 178 178 176 176 177 177 175 174 173 171 173 174 175 176 177 179 183 187 190 192 195 198 202 206 212 218 226 238
217 220 221 217 227 236 219 217 228 236 233 207 212 226 233 238 244 252 259 256 253 254 254 252 251 252 255 256 254 252 255 262 269 274 273 272 269 263 263 267 273 273 269 267 267 262 257 238 208 198 195 188 184 181 180 182 182 176 174 176 176 176 177 176 174 174 173 172 173 175 176 177 177 179 182 185 187 190 193 197 200 203 206 211 221 235
216 218 217 222 220 217 223 222 225 250 262 168 196 224 226 219 221 231 245 246 243 247 252 250 249 249 250 252 254 255 259 266 274 271 266 266 264 259 258 260 265 267 264 265 266 258 236 210 199 195 185 177 178 182 183 182 180 174 171 173 175 176 176 175 174 175 175 175 175 176 177 178 179 179 181 183 185 188 191 194 197 200 201 207 219 232
213 213 213 223 215 205 227 232 221 240 237 202 215 231 230 225 227 234 246 247 235 245 251 247 247 247 246 250 255 258 257 259 263 262 263 266 264 256 254 256 257 258 260 261 257 242 208 192 192 189 181 176 181 186 185 181 177 172 169 171 173 174 174 175 177 177 177 177 177 177 178 180 180 180 180 182 184 187 189 190 193 195 198 206 219 229
216 216 215 227 225 208 228 235 218 230 227 198 218 234 240 244 243 244 252 242 206 234 247 245 246 248 248 253 256 253 249 248 253 258 260 264 268 261 250 255 257 254 254 250 240 226 198 183 181 180 177 178 184 186 183 178 174 171 169 171 172 172 175 178 181 181 179 178 177 178 179 180 181 181 181 182 183 184 185 187 187 189 195 205 216 227
215 216 217 228 232 222 232 242 228 235 228 189 208 227 237 245 246 243 248 221 190 224 239 243 248 249 250 255 254 245 240 238 244 255 255 255 265 261 235 240 249 249 247 241 237 223 189 174 171 172 180 188 188 183 178 174 172 172 173 172 172 176 180 183 182 180 178 177 176 177 178 179 180 181 181 181 181 181 183 183 182 186 194 203 208 217
211 209 212 223 229 224 230 239 238 233 218 197 214 228 231 239 241 236 238 218 212 229 236 242 251 253 245 246 247 238 237 235 239 253 259 260 265 261 245 240 243 253 267 266 242 206 180 182 185 189 197 194 182 176 175 173 172 176 175 172 176 183 185 182 179 176 176 176 175 176 177 178 179 180 179 179 178 178 179 178 180 187 193 195 197 208
198 206 211 216 223 224 226 234 246 241 201 198 224 229 208 192 224 231 234 234 234 240 241 241 248 249 241 238 238 239 246 247 247 253 258 256 254 255 255 245 228 238 265 274 227 196 188 199 203 203 204 189 179 178 176 174 175 178 175 175 183 187 182 177 176 175 174 174 173 174 175 175 176 176 175 176 176 175 174 175 180 188 189 186 191 204
190 208 217 202 207 229 232 227 241 245 181 193 221 227 193 204 235 242 243 244 241 240 239 236 240 245 242 237 234 238 247 253 253 251 251 251 249 253 255 243 225 229 227 212 224 209 198 211 215 208 198 186 183 182 178 175 178 179 177 181 187 183 176 173 173 172 170 171 170 170 171 171 172 173 173 173 174 171 171 175 181 186 186 180 182 190
195 205 221 195 187 211 225 215 222 235 207 198 212 218 201 212 228 236 243 248 247 245 244 241 242 244 243 245 245 244 244 246 248 249 251 252 250 250 251 237 218 222 208 183 192 196 194 210 218 204 192 187 187 185 181 180 179 179 182 186 181 175 171 171 170 168 167 167 166 166 168 169 171 172 172 172 172 169 171 176 181 184 182 172 171 180
214 226 247 239 210 221 253 248 234 248 237 213 217 232 236 235 236 242 252 260 263 268 277 284 285 284 286 286 275 265 257 251 252 254 255 257 254 253 253 235 214 214 206 195 193 188 192 204 203 191 189 189 189 189 188 185 181 180 184 182 175 171 169 168 166 164 162 162 163 165 166 167 168 170 170 171 170 169 174 179 180 180 175 166 170 179
305 303 314 310 304 322 323 317 332 337 322 311 295 290 296 296 290 293 303 307 316 331 337 332 327 328 331 330 323 311 301 298 295 288 282 278 273 267 259 236 222 217 205 200 198 188 190 198 197 191 191 192 192 194 194 192 189 184 179 174 172 171 169 165 163 161 160 161 163 165 165 164 164 166 168 169 168 171 178 181 180 176 170 167 172 173
332 345 346 329 320 329 331 342 349 331 312 312 314 311 320 330 341 355 353 341 340 339 334 330 329 326 323 326 326 313 303 303 304 299 297 293 285 278 266 243 233 224 207 206 206 193 185 190 197 197 195 192 193 195 195 195 194 186 175 171 171 170 168 165 162 160 160 161 161 163 164 163 163 164 166 166 169 175 181 184 180 171 165 169 173 168
333 343 339 323 315 309 300 311 317 299 285 290 295 313 344 352 350 347 339 332 330 324 320 321 320 317 317 316 311 304 297 292 289 288 290 288 284 278 270 256 245 232 218 216 210 193 186 198 203 200 198 191 189 192 193 193 192 184 175 172 171 169 167 165 163 161 160 159 159 161 163 163 163 163 164 165 171 177 182 183 177 167 166 175 172 162
307 312 313 309 306 299 295 305 314 304 300 309 324 343 353 345 332 327 323 321 320 315 313 311 304 302 307 304 302 302 296 288 284 280 278 278 277 273 268 264 258 244 231 223 207 193 194 206 205 201 200 194 188 189 190 188 186 182 176 173 172 170 166 163 162 160 158 158 160 160 162 163 163 161 164 168 171 176 181 181 173 163 166 173 165 154
281 281 288 294 292 286 291 312 330 325 311 311 321 325 325 320 317 314 312 311 309 305 305 303 299 296 293 289 290 290 287 285 285 281 277 276 275 272 269 266 262 252 237 218 199 196 204 210 207 202 201 194 188 186 186 184 183 180 177 174 173 171 167 162 159 157 157 159 161 161 162 163 161 161 167 171 172 173 176 174 165 157 160 168 168 170
252 260 270 277 277 281 291 308 325 319 303 302 309 310 310 311 308 305 304 302 297 295 295 294 294 294 291 286 283 280 278 281 281 281 281 278 274 274 274 273 271 264 249 217 193 199 210 210 205 201 200 195 188 184 183 182 180 177 176 175 175 173 168 162 158 157 159 161 162 162 163 163 162 164 170 172 171 170 168 163 156 155 160 167 174 180